Location: Voyageurs National Park
(48.5020°N, 92.9292°W)
Time: 21:58:56
(UTC-05:00)

Daily predictions for brighter satellites

Satellite Brightness Start Highest point End
(mag) Time Altitude Azimuth Time Altitude Azimuth Time Altitude Azimuth
ERS-1 Rocket 3.7 20:29:52 10° SE 20:34:28 37° ENE 20:39:04 10° N
Cosmos 1898 Rocket 4.1 20:32:33 10° NNW 20:37:38 43° ENE 20:42:39 10° SE
EP 2 4.3 20:37:44 10° SSW 20:40:19 67° SE 20:43:19 10° NE
Lacrosse 5 2.1 20:37:56 10° NW 20:42:59 63° NNE 20:48:01 10° ESE
Meteor 1-29 4.1 20:39:47 10° N 20:43:08 49° WNW 20:46:30 10° SSW
Tiangong 1 2.3 20:42:36 10° WSW 20:45:18 27° S 20:47:55 11° ESE
NOSS 2-1 (E) 3.5 20:41:38 10° SW 20:45:38 87° SE 20:50:28 10° NE
Helios 1B rocket 3.8 20:43:29 10° N 20:47:27 45° WNW 20:51:22 10° SW
Cosmos 1697 Rocket 3.6 20:47:44 10° SSE 20:52:18 26° ESE 20:56:54 10° NE
EO 1 Delta rocket 3.9 20:50:12 10° NNE 20:54:51 77° E 20:59:59 10° S
SPOT 5 4.0 20:51:00 10° ESE 20:55:15 28° ENE 20:59:19 10° N
Cosmos 1975 3.1 20:52:49 10° SSE 20:56:46 47° E 21:00:44 10° NNE
Cosmos 2278 3.7 20:51:21 10° SSW 20:56:58 69° ESE 21:02:40 10° NNE
Lacrosse 5 rocket 2.1 20:58:29 10° WNW 21:02:02 40° SW 21:05:26 10° SSE
H-2A R/B 3.7 21:01:08 10° S 21:04:55 50° W 21:08:48 10° NNW
USA 215 3.8 21:00:50 10° E 21:07:08 52° NNE 21:13:26 10° NW
Cosmos 1605 Rocket 4.0 21:02:33 10° S 21:08:54 87° E 21:15:12 10° N
EP 1 4.1 21:06:38 10° SSW 21:09:11 67° SE 21:11:57 10° NE
Cosmos 1825 Rocket 4.3 21:05:15 10° N 21:09:21 35° ENE 21:12:29 15° SE
Cosmos 2369 3.7 21:05:01 10° SSW 21:10:42 78° ESE 21:16:26 10° NNE
CZ-4 DEB 2.7 21:11:26 10° SSE 21:14:34 88° WSW 21:17:44 10° NNW
Cosmos 1980 Rocket 3.2 21:10:26 10° SSE 21:14:55 25° ESE 21:19:26 10° NE
ARGOS 4.3 21:12:11 14° ESE 21:15:39 27° ENE 21:20:08 10° N
Cosmos 2100 Rocket 4.3 21:10:49 10° SSE 21:16:46 47° E 21:22:42 10° NNE
NOSS 7 (D) 4.3 21:13:54 10° SW 21:17:16 90° SE 21:20:47 10° NE
Cosmos 1953 Rocket 4.4 21:14:54 10° N 21:18:57 33° ENE 21:21:30 19° SE
YAOGAN 11 4.2 21:15:02 10° SSE 21:19:32 84° WSW 21:24:02 10° NNW
Cosmos 2061 Rocket 4.3 21:14:50 10° SSE 21:20:47 46° E 21:26:43 10° NNE
Meteor 1-12 Rocket 4.3 21:15:25 10° S 21:21:10 88° E 21:27:04 10° NNE
Cosmos 858 Rocket 4.5 21:16:36 10° NNW 21:21:56 84° ENE 21:26:37 13° SSE
SJ-11-01 4.4 21:19:45 10° S 21:24:28 79° WSW 21:29:10 10° NNW
H-2A R/B 2.1 21:23:39 18° SE 21:26:34 56° ENE 21:30:39 10° N
Cosmos 1626 Rocket 4.2 21:22:32 10° NNW 21:26:53 56° W 21:31:09 10° S
Terra 3.7 21:28:05 12° E 21:29:59 15° ENE 21:32:40 10° NNE
Cosmos 1939 Rocket 2.9 21:26:45 12° SSE 21:30:38 87° WSW 21:34:50 10° NNW
Cosmos 2298 Rocket 4.3 21:26:10 10° NNW 21:31:29 70° WSW 21:36:31 11° S
Cosmos 1666 4.1 21:31:54 20° E 21:31:56 20° E 21:34:43 10° NE
MetOp-B 4.4 21:28:30 18° SE 21:32:18 53° ENE 21:37:30 10° N
deb Chang Zheng 4 3.9 21:31:42 10° NNE 21:36:01 46° E 21:39:28 15° S
ASTEX 1 3.9 21:31:47 10° NNE 21:36:31 40° E 21:39:19 21° SE
Cosmos 1758 Rocket 4.0 21:33:47 10° N 21:37:58 42° ENE 21:39:53 26° SE
Cosmos 2263 Rocket 3.7 21:34:17 10° N 21:38:44 24° NE 21:41:51 15° E
Meteor 1-21 4.3 21:33:02 10° N 21:38:47 63° ENE 21:42:53 20° SSE
Cosmos 2227 Rocket 3.8 21:34:01 10° NW 21:38:56 31° WSW 21:43:50 10° SSW
Cosmos 2228 4.4 21:41:50 20° E 21:41:50 20° E 21:44:55 10° NE
Envisat 3.1 21:37:25 12° S 21:42:12 79° WSW 21:47:20 10° NNW
Cosmos 1500 3.2 21:38:52 10° SSW 21:42:38 82° W 21:46:27 10° N
Cosmos 1937 Rocket 3.5 21:37:21 10° NNW 21:42:39 83° WSW 21:46:32 19° SSE
ATLAS CENTAUR R/B 4.5 21:40:20 10° WNW 21:43:59 20° NNW 21:47:33 10° NNE
Cosmos 1656 3.6 21:38:40 10° SSW 21:44:17 82° ESE 21:49:52 10° NNE
Cosmos 2322 Rocket 3.7 21:48:05 17° E 21:48:05 17° E 21:50:50 10° ENE
Iridium 4 Rocket 4.3 21:42:26 10° NNW 21:47:29 51° W 21:52:04 10° SSW
Cosmos 2084 4.4 21:45:10 10° NW 21:48:56 38° SW 21:51:25 19° S
H-2A R/B 3.2 21:48:51 22° E 21:50:33 27° ENE 21:54:38 10° N
Cosmos 1725 Rocket 4.5 21:47:52 23° SE 21:51:03 39° E 21:56:47 10° NNE
Cosmos 1459 Rocket 3.8 21:45:31 10° S 21:51:33 78° E 21:57:41 10° NNE
Cosmos 1340 2.5 21:47:52 10° N 21:51:41 80° ENE 21:53:18 33° SSE
Cosmos 2297 Rocket 3.7 21:49:28 10° NW 21:54:26 32° WSW 21:59:23 10° SSW
RESURS DK-1 2.7 21:51:07 10° NW 21:55:13 59° WSW 21:57:19 27° S
Cosmos 990 Rocket 4.0 21:51:29 10° NNW 21:56:47 84° WSW 21:59:51 26° SSE
Cosmos 2227 4.2 21:53:51 10° NNW 21:59:39 84° ENE 22:02:41 29° SSE
Cosmos 405 Rocket 4.0 21:58:24 10° NNE 22:01:31 24° ENE 22:01:31 24° ENE
CZ-4B R/B 4.0 21:57:22 10° NNE 22:01:39 32° E 22:02:02 32° ESE
YAOGAN 6 2.5 22:01:27 41° SSE 22:02:40 86° ENE 22:06:25 10° NNW
Cosmos 2098 Rocket 4.1 21:58:17 20° SSE 22:02:53 54° E 22:08:27 10° NNE
Cosmos 2058 Rocket 3.4 22:03:28 38° SE 22:04:35 47° E 22:08:56 10° NNE
SPOT 1/Viking Rocket 3.5 22:07:00 33° SSE 22:09:23 73° ENE 22:14:37 10° N
SL-19 R/B 4.2 22:07:35 10° NNE 22:13:01 55° E 22:15:14 33° SSE
ERS-1 Rocket 4.5 22:08:45 10° SSW 22:13:16 33° W 22:17:49 10° NNW
Cosmos 1606 Rocket 3.5 22:11:06 27° S 22:13:31 87° E 22:17:59 10° N
Cosmos 1743 3.3 22:15:07 18° SSW 22:17:53 59° WNW 22:21:47 10° N
MetOp-A 4.4 22:15:32 24° S 22:18:47 66° WSW 22:24:08 10° NNW
Tiangong 1 3.4 22:18:56 10° WSW 22:19:53 15° SW 22:19:53 15° SW
Cosmos 1802 Rocket 4.2 22:15:19 10° SSW 22:21:43 77° W 22:28:12 10° N
CARTOSAT-1 4.2 22:24:42 38° ENE 22:24:59 38° ENE 22:29:01 10° N
SL-08 R/B 4.4 22:20:35 21° S 22:25:00 83° E 22:31:12 10° N
Lacrosse 5 2.9 22:21:11 10° WNW 22:25:45 34° SW 22:27:19 28° SSW
Cosmos 1125 Rocket 3.4 22:20:51 10° NNW 22:26:05 76° ENE 22:27:33 47° SE
Cosmos 1763 Rocket 3.3 22:23:19 23° SSW 22:26:34 79° ESE 22:31:40 10° NNE
BREEZE-M DEB (TANK) 3.2 22:27:32 10° W 22:29:28 32° SW 22:29:28 32° SW
SPOT 5 3.9 22:30:12 21° SSW 22:33:09 43° W 22:37:45 10° NNW
Cosmos 1697 Rocket 3.3 22:30:20 10° SW 22:35:54 58° WNW 22:41:30 10° NNE
Cosmos 2016 Rocket 4.2 22:31:45 13° SSW 22:37:13 70° W 22:43:27 10° N
Cosmos 1726 Rocket 3.9 22:35:28 31° SSW 22:37:24 63° WNW 22:41:48 10° N
Cosmos 1842 3.8 22:35:17 10° NNW 22:39:06 52° W 22:39:44 46° SW
SL-08 RB Rocket 3.8 22:39:37 54° S 22:40:38 78° WSW 22:45:19 10° NNW
SL-16 R/B 2.6 22:42:47 43° E 22:42:47 43° E 22:47:46 10° NE
NOAA 11 4.4 22:42:27 37° S 22:44:35 65° WSW 22:50:03 10° NNW
Cosmos 841 Rocket 3.5 22:45:13 26° SSW 22:48:16 80° WNW 22:53:31 10° NNE
USA 215 3.2 22:47:45 45° SE 22:49:58 79° SW 22:56:33 10° WNW
Cosmos 1844 Rocket 4.4 22:47:18 10° N 22:51:32 21° NE 22:53:29 18° ENE
Cosmos 1707 3.9 22:47:57 10° N 22:50:46 34° NE 22:50:46 34° NE
Landsat 7 3.7 22:51:09 69° S 22:51:44 86° WSW 22:56:32 10° NNW
Cosmos 332 Rocket 4.4 22:54:43 43° ENE 22:54:43 43° ENE 22:58:26 10° NNE
ARGOS 3.7 22:53:43 36° SSW 22:55:36 53° W 23:00:54 10° NNW
Cosmos 1980 Rocket 2.6 22:52:52 10° SW 22:58:29 62° WNW 23:04:10 10° NNE
Cosmos 2360 Rocket 3.8 23:01:28 20° ENE 23:01:28 20° ENE 23:03:47 10° NE
DMSP B5D2-2 4.2 22:55:04 10° NNE 22:59:59 54° E 22:59:59 54° E
CZ-4 R/B 3.7 22:57:13 10° NNE 23:01:58 90° WNW 23:02:18 78° SSW
H-2A R/B 4.5 23:00:47 11° SW 23:02:58 16° W 23:05:29 10° NW
BREEZE-M DEB (TANK) 4.4 22:31:16 10° WNW 23:04:37 72° SSW 23:07:28 45° SE
Meteor 2-5 Rocket 3.7 22:59:23 10° N 23:05:23 79° ENE 23:06:17 64° SE
Terra 1.7 23:06:58 85° SSW 23:07:04 86° WSW 23:11:52 10° NNW
Cosmos 1666 4.1 23:06:52 32° W 23:07:25 34° WNW 23:10:55 10° N
Cosmos 540 Rocket 3.6 23:08:30 59° ENE 23:08:30 59° ENE 23:12:58 10° NNE
IGS 5A 3.8 23:13:53 63° NNW 23:13:53 63° NNW 23:17:27 10° NNW
Cosmos 372 Rocket 4.0 23:10:30 10° NNW 23:15:36 68° WSW 23:15:49 67° SW
GP-B 3.3 23:11:55 10° N 23:15:46 66° N 23:15:46 66° N
Cosmos 2228 3.9 23:18:42 41° W 23:19:06 43° WNW 23:23:12 10° N
Cosmos 2263 Rocket 2.0 23:17:42 10° NNW 23:23:18 77° WSW 23:23:33 75° SW
Okean 3 Rocket 4.1 23:19:23 10° N 23:22:55 54° NNE 23:22:55 54° NNE
BREEZE-M DEB (TANK) 3.9 23:08:07 10° WNW 23:23:59 57° SW 23:24:47 53° SSW
Meteor 1-24 Rocket 3.8 23:22:31 10° N 23:28:36 74° ENE 23:28:57 71° ESE
Spot 4 4.0 23:28:57 71° WNW 23:28:57 71° WNW 23:33:25 10° NNW
H-2A R/B 2.5 23:29:30 46° WSW 23:29:46 47° W 23:34:33 10° NNW
Cosmos 2322 Rocket 2.1 23:29:50 68° SW 23:30:32 80° WNW 23:36:13 10° NNE
ALOS 2 4.4 23:38:02 24° NE 23:38:02 24° NE 23:40:45 10° N
CZ-4B R/B 4.4 23:46:00 13° NNE 23:46:00 13° NNE 23:46:44 10° NNE
GEOS 3 Rocket 3.7 23:40:34 10° NE 23:45:42 72° NW 23:46:02 69° WNW
COSMOS 2428 4.3 23:55:04 23° ENE 23:55:04 23° ENE 23:57:42 10° NE
Cosmos 1072 Rocket 4.4 23:53:13 77° SW 23:53:37 82° W 23:59:53 10° N
